Weather in Piteşti

Romania     44°50′50″N   24°52′08″E
temp.,
°C
wind,
m/s
gust,
m/s
humid.,
%
clouds,
%
prec.,
mm/h
press.,
hPa
HPBL,
m
18 may, tue
tue1800:00+13wsw31098100 0.8 1005463
03:00+11w5119555 0.8 1005471
06:00+9wsw815906 0.0 1005576
09:00+13w913785 0.1 1006645
12:00+16w11145333 0.0 10061968
15:00+17w111659100 0.1 10061996
18:00+16wnw81461100 0.1 10071902
21:00+14w81358100 0.1 1008804
19 may, wed
wed1900:00+12w714646 0.0 1010479
03:00+11w613650 0.0 1010335
06:00+8wnw4107741 0.0 1011170
09:00+14wnw4561100 0.0 1012322
12:00+19w3443100 0.0 10111043
15:00+21wsw573991 0.0 10101757
18:00+19wnw485086 0.0 1010651
21:00+14s116798 0.2 100810
20 may, thu
thu2000:00+12nne469567 7.3 1009162
03:00+11ne239399 8.7 100972
06:00+11w239491 0.1 1009138
09:00+12wsw4688100 0.1 1009540
12:00+13wsw687797 0.1 10101042
15:00+14w696382 0.2 10091560
18:00+13w787035 0.1 1009975
21:00+10w6108124 0.1 1010517
21 may, fri
fri2100:00+8wsw489366 0.0 1012301
03:00+8w4790100 0.0 1011238
06:00+9nw2283100 0.0 101271
09:00+14n346367 0.0 1012630
12:00+17nw454983 0.4 10121957
15:00+18nw654857 0.4 10121752
18:00+16nnw695621 0.0 1013704
21:00+12nnw59740 0.0 1015215
22 may, sat
sat2200:00+9nnw47810 0.0 1016127
03:00+9n36790 0.0 101699
06:00+8n22815 0.0 101626
09:00+14n22625 0.0 1016347
12:00+19w44486 0.0 10151199
15:00+21wsw33445 0.0 10141337
18:00+21sw33476 0.0 10131381
21:00+16sw2266100 0.0 101414